Retour au catalogue

STARLINK-33783

ActifCommunicationsVLEO
NORAD 63712·PAYLOAD·🇺🇸 United States

Lancé Apr 28, 2025 depuis Vandenberg Space Force Base

Loading…

Prochains Passages (prochaines 24 heures)

TLE

FraisSource: CelesTrak SupGP

Époque: Sep 15, 2026, 02:10 UTC

1 63712C 25087R   26258.09076389 -.00023157  00000+0 -74474-3 0  2582
2 63712  53.1583  58.5231 0001142  86.9288 354.3713 15.31709927    10

Suivez STARLINK-33783 en temps réel avec AllMySat

Download on the App Store